SCP
0 0 -0 0 0 0 0 0 0 0 0 0 0 0 0 0 0 0 0 0 0 0 0 0 0 0 0 0 0 0 0 0 0 0 0 0 0 0 0 0 0 0 0 0
0 0 0 0 0 0 0 -0 0 0 0 0 0 0 0 0 0 0 0 0 0 0 0 0 0 0 0 0 0 0 0 0 0 0 0 0 0 0 0 0 0 0 0 0
0 0 0 0 0 0 0 0 0 0 0 0 0 0 0 0 0 0 0 0 0 0 0 0 0 0 0 0 0 0 0 0 0 0 0 0 0 0 0 0 0 0 0 0
0 0 0 0 0 0 0 0 0 0 0 0 0 0 0 0 0 0 0 0 0 0 0 0 0 0 0 0 0 0 0 0 0 0 0 0 0 0 0 0 0 0 0 0
0 0 0 0 0 0 0 0 0 0 0 0 0 0 0 0 0 0 0 0 0 0 0 0 0 0 0 0 0 0 0 0 0 0 0 0 0 0 0 0 0 0 0 0
0 0 0 0 0 0 0 0 0 0 0 0 0 0 0 0 0 0 0 0 0 0 0 0 0 0 0 0 0 0 0 0 0 0 0 0 0 0 0 0 0 0 0 0
0 0 0 0 0 0 0 0 0 0 0 0 0 0 0 0 0 0 0 0 0 0 0 0 0 0 0 0 0 0 0 0 0 0 0 0 0 0 0 0 0 0 0 0
0 0 0 0 0 0 0 0 0 0 0 0 0 0 0 0 0 0 0 0 0 0 0 0 0 0 0 0 0 0 0 0 0 0 0 0 0 0 0 0 0 0 0 0
0 0 -0 0 0 0 0 0 0 0 0 0 0 0 0 0 0 0 0 0 0 0 0 0 0 0 0 0 0 0 0 0 0 0 0 0 0 0 0 0 0 0 0 0
0 0 0 0 0 0 0 0 0 0 0 0 0 0 0 0 0 0 0 0 0 0 0 0 0 0 0 0 0 0 0 0 0 0 0 0 0 0 0 0 0 0 0 0
0 0 0 0 0 0 0 0 0 0 0 0 0 0 0 0 0 0 0 0 0 0 0 0 0 0 0 0 0 0 0 0 0 0 0 0 0 0 0 0 0 0 0 0
1 0 0 1 0 0 0 0 0 0 0 0 0 0 0 0 0 0 0 0 0 0 0 0 0 0 0 0 0 0 0 0 0 0 0 0 0 0 0 0 0 0 0 0
0 0 0 0 0 0 0 0 0 0 0 0 0 0 0 0 0 0 0 0 0 0 0 0 0 0 0 0 0 0 0 0 0 0 0 0 0 0 0 0 0 0 0 0
0 0 0 0 0 0 0 0 0 0 0 0 0 0 0 0 0 0 0 0 0 0 0 0 0 0 0 0 0 0 0 0 0 0 0 0 0 0 0 0 0 0 0 0
0 0 0 0 0 0 0 0 0 0 0 0 0 0 0 0 0 0 0 0 0 0 0 0 0 0 0 0 0 0 0 0 0 0 0 0 0 0 0 0 0 0 0 0
0 0 0 0 0 0 0 0 0 0 0 0 0 0 0 0 0 0 0 0 0 0 0 0 0 0 0 0 0 0 0 0 0 0 0 0 0 0 0 0 0 0 0 0
0 0 0 0 0 0 0 0 0 0 0 0 0 0 0 0 -0 0 0 0 0 0 0 0 0 0 0 0 0 0 0 0 0 0 0 0 0 0 0 0 0 0 0 0
0 0 0 0 0 0 0 0 0 0 0 0 0 0 -0 0 0 1 0 0 0 0 0 0 0 0 0 0 0 0 0 0 0 0 0 0 0 0 0 0 0 0 0 0
0 0 0 0 0 0 0 0 0 0 0 0 0 0 0 0 0 0 0 0 0 0 0 0 0 0 0 0 0 0 0 0 0 0 0 0 0 0 0 0 0 0 0 0
0 0 0 0 0 0 0 0 0 0 0 0 0 0 0 0 0 0 0 0 0 0 0 0 0 0 0 0 0 0 0 0 0 0 0 0 0 0 0 0 0 0 0 0
0 0 0 0 0 0 0 0 0 0 0 0 0 0 0 0 0 0 0 0 0 0 0 0 0 0 0 0 0 0 0 0 0 0 0 0 0 0 0 0 0 0 0 0
0 0 0 0 0 0 0 0 0 0 0 0 0 0 0 0 0 0 0 0 0 0 0 0 0 0 0 0 0 0 0 0 0 0 0 0 0 0 0 0 0 0 0 0
0 0 0 0 0 0 0 0 0 0 0 0 0 0 0 0 0 0 0 0 0 0 0 0 0 0 0 0 0 0 0 0 0 0 0 0 0 0 0 0 0 0 0 0
0 0 0 0 0 0 0 0 0 0 0 0 0 0 0 0 0 0 0 0 0 0 0 0 0 0 0 0 0 0 0 0 0 0 0 0 0 0 0 0 0 0 0 0
0 0 0 0 0 0 0 0 0 0 0 0 0 0 0 0 0 0 0 0 0 0 0 0 0 0 0 0 0 0 0 0 0 0 0 0 0 0 0 0 0 0 0 0
0 0 0 0 0 0 0 0 0 0 0 0 0 0 0 0 0 0 0 0 0 0 0 0 0 0 0 0 0 0 0 0 0 0 0 0 0 0 0 0 0 0 0 0
0 0 0 0 0 0 0 0 0 0 0 0 0 0 0 0 0 0 0 0 0 0 0 0 0 0 0 0 0 0 0 0 0 0 0 0 0 0 0 0 0 0 0 0
Wind_Speed_500mb
5 16 12 11 7 15 12 10 12 9 15 20 24 38 57 27 31 44 40 32 24 20 13 14 14 14 19 27 23 20 17 21 25 29 33 34 34 36 36 34 38 39 43 40
10 16 12 11 11 12 13 18 15 17 10 28 49 49 35 27 55 43 37 29 22 16 7 9 11 9 17 24 16 20 15 16 17 21 24 29 34 33 30 32 33 36 39 36
7 20 23 15 6 14 14 13 14 10 10 25 16 38 35 37 48 40 29 22 17 10 5 9 8 8 15 16 9 21 10 16 18 15 22 25 30 27 28 27 28 33 39 32
7 6 5 12 14 16 17 15 17 17 13 20 16 25 30 51 45 41 34 26 20 15 8 3 4 7 14 9 16 16 14 14 19 16 19 25 31 29 29 27 26 29 32 32
6 5 7 8 10 11 14 12 16 16 19 22 34 46 40 40 39 36 26 22 16 9 1 2 6 5 12 9 18 12 13 12 19 26 11 20 31 26 28 25 28 26 25 29
3 2 5 8 12 24 28 6 23 31 20 13 14 9 8 33 30 29 20 13 12 6 2 5 8 3 11 9 18 17 11 11 16 23 21 19 27 21 24 26 24 28 30 24
5 6 4 4 17 5 2 13 28 22 11 16 12 29 41 33 27 21 19 16 11 5 9 9 9 8 10 16 16 17 13 9 14 14 21 22 22 22 24 28 29 29 27 30
9 4 3 7 3 5 19 34 32 19 26 38 41 35 30 30 26 18 14 10 13 14 12 6 4 5 8 20 15 14 15 14 8 13 17 15 18 21 26 23 26 24 29 32
10 7 24 12 20 36 42 44 33 28 31 26 32 31 35 29 23 16 13 13 13 16 11 10 9 13 16 18 18 18 15 18 18 13 15 18 21 19 24 27 27 30 27 29
12 9 20 31 27 39 37 40 33 28 26 28 31 30 38 32 30 23 22 17 16 14 11 10 10 12 17 20 23 24 14 15 12 22 20 18 20 21 20 22 27 30 29 29
5 26 20 17 39 34 33 38 36 31 25 22 21 32 37 33 28 18 20 13 18 15 13 12 14 18 20 21 27 29 24 16 18 19 24 20 27 33 24 26 26 31 27 31
5 16 20 21 23 11 16 18 33 36 31 26 22 22 34 34 28 24 21 18 23 22 22 21 18 20 21 24 29 31 27 18 14 14 17 15 20 29 28 31 30 31 29 30
16 15 10 8 12 13 13 24 34 35 36 33 25 23 24 34 29 23 25 25 27 25 18 15 15 23 27 29 33 35 31 26 18 18 21 27 27 27 22 30 24 36 32 30
20 14 12 4 9 18 10 5 7 33 36 37 37 27 23 28 28 27 30 30 29 29 27 26 27 27 23 26 34 38 35 30 23 19 23 26 29 22 32 35 34 37 35 37
7 5 5 13 19 16 14 14 15 14 35 37 35 33 37 39 34 35 33 29 31 34 34 34 36 35 29 35 42 42 41 38 32 27 33 34 28 30 29 28 34 30 36 39
3 9 18 19 25 14 6 3 9 15 29 36 31 39 40 24 25 36 38 30 32 39 39 37 38 39 37 41 44 47 48 45 38 32 41 38 31 32 30 30 32 36 43 45
4 8 11 17 25 17 10 5 2 11 8 8 17 15 13 34 41 38 29 32 32 34 39 43 44 41 42 46 50 51 51 49 43 43 44 43 39 33 35 33 38 37 40 42
15 17 18 15 11 22 25 25 21 20 32 24 27 25 18 25 6 5 12 23 28 34 40 44 45 48 51 52 52 54 53 52 50 44 47 50 49 41 44 42 43 43 45 37
13 15 11 14 20 29 30 28 25 22 23 22 24 23 15 8 10 12 16 19 21 28 33 38 42 47 52 54 53 53 54 54 50 51 55 54 45 40 50 48 45 49 45 44
6 6 26 34 35 35 33 22 10 5 12 10 9 7 6 8 10 15 20 22 24 28 33 37 42 46 49 49 55 53 45 46 56 60 61 55 47 51 54 49 50 59 43 44
11 51 43 45 42 35 30 24 22 21 15 7 7 10 11 10 11 14 22 24 26 28 30 33 32 32 40 41 45 49 48 49 50 54 65 58 56 56 57 59 51 42 52 47
35 43 43 38 34 33 26 23 22 20 17 13 15 17 20 22 23 21 20 27 34 38 39 38 38 42 45 43 49 45 44 49 57 66 66 58 60 58 53 41 52 50 37 47
42 39 36 34 34 32 26 20 13 13 13 15 19 25 29 32 33 34 37 41 45 46 47 47 45 39 43 46 52 57 57 56 56 58 65 66 63 58 70 56 43 62 46 44
42 39 38 34 28 25 24 25 18 12 15 15 22 19 21 27 31 39 46 42 35 43 44 39 41 35 34 42 47 51 54 54 51 56 56 75 58 63 53 42 54 43 48 44
35 34 27 24 26 20 10 8 1 11 12 16 18 23 27 34 42 45 39 37 37 40 46 48 51 56 53 46 46 51 53 56 59 61 60 56 47 43 44 46 54 66 56 36
32 32 27 21 17 12 3 6 14 12 19 23 28 33 40 37 34 30 34 37 39 37 38 37 35 38 41 42 45 38 41 41 44 45 54 47 63 60 70 49 49 50 46 40
22 17 18 20 12 4 5 14 17 19 26 23 28 30 36 28 32 25 29 32 35 40 45 50 54 55 59 58 59 59 58 53 50 43 36 40 45 49 51 42 41 46 36 43
Wind_Direction_500mb
287 244 250 321 320 105 90 56 87 132 109 150 163 167 192 143 139 120 117 112 111 111 91 41 41 14 360 0 28 26 18 5 7 10 8 10 4 9 7 16 20 23 21 26
288 345 318 229 292 130 124 115 76 96 80 116 148 153 147 168 128 121 118 115 118 120 99 62 15 22 355 4 27 6 30 4 358 15 7 9 3 3 10 14 19 23 26 30
293 47 359 329 2 106 109 93 115 95 139 99 140 154 163 150 131 124 122 125 136 134 82 78 35 17 355 15 13 355 35 2 356 6 350 354 356 2 13 15 17 17 23 25
239 66 225 241 81 81 96 130 113 102 97 105 84 117 131 133 130 132 127 129 137 141 129 96 11 37 5 9 347 0 10 1 347 353 10 6 360 10 10 8 15 10 16 22
138 209 264 66 106 121 118 47 85 92 70 88 109 108 86 123 130 129 134 141 149 174 263 67 35 33 32 1 341 354 356 360 344 352 355 351 8 1 8 9 16 6 7 21
134 335 265 183 106 101 99 56 87 84 56 95 135 79 158 119 122 120 127 152 174 177 100 13 32 62 355 336 335 356 360 3 336 355 3 336 356 356 359 4 5 6 4 6
210 223 74 318 98 108 202 215 116 113 83 128 95 138 140 136 132 139 155 154 151 183 203 333 25 37 318 325 347 347 3 349 336 354 340 339 337 352 343 342 329 350 348 349
356 342 60 300 75 166 157 126 129 126 126 123 130 137 145 141 142 154 169 167 176 192 234 304 356 285 306 322 348 329 344 335 332 329 9 9 3 349 351 339 343 336 336 338
155 232 250 136 132 146 157 153 152 141 153 148 153 164 173 160 160 153 186 158 176 214 235 289 302 303 325 329 331 332 321 340 344 347 337 356 348 3 351 340 345 343 326 322
153 230 194 156 157 164 168 166 167 160 155 165 167 174 179 172 175 174 184 189 206 212 258 262 273 283 302 308 317 321 315 320 319 320 324 327 330 338 330 335 348 339 334 338
76 9 62 141 168 170 182 174 169 171 172 178 189 194 194 185 187 186 197 202 206 219 224 230 271 271 294 290 300 313 319 314 319 311 313 306 314 317 320 329 328 328 331 337
171 80 87 37 51 169 165 176 186 179 178 184 192 206 201 195 193 194 204 220 226 230 232 248 232 265 280 286 292 303 309 315 316 313 329 325 328 325 319 328 327 337 328 328
129 100 78 33 13 326 305 230 204 198 193 188 187 201 210 197 200 213 225 234 234 246 259 255 245 237 258 272 283 292 303 307 307 320 321 332 321 323 313 324 326 330 329 324
68 52 16 338 301 354 10 295 328 218 207 201 196 194 197 206 209 231 242 241 242 245 248 245 251 254 257 268 277 286 293 301 308 309 302 299 320 304 303 301 314 329 333 331
92 72 10 331 303 279 301 285 275 303 212 199 205 200 205 216 228 244 244 245 246 255 253 248 254 262 266 266 274 283 290 294 300 291 284 297 312 313 315 311 319 314 331 340
340 302 317 281 320 241 214 317 290 328 230 215 207 204 199 202 241 243 235 243 243 254 263 259 263 269 273 273 275 278 285 291 295 295 296 290 305 310 303 307 319 316 319 325
288 312 300 336 349 280 191 141 182 22 28 23 159 193 197 222 243 232 240 261 259 264 273 275 280 278 274 275 277 279 281 284 286 279 284 289 294 280 290 284 309 314 309 306
266 268 272 281 335 107 102 94 88 70 61 69 59 52 55 45 27 349 293 279 267 282 273 282 287 288 288 282 275 273 276 281 284 283 282 288 292 283 281 291 299 303 306 304
307 279 253 271 137 112 96 86 79 72 69 69 76 72 61 25 353 327 305 300 303 303 303 304 299 295 297 298 299 290 279 273 274 277 279 282 290 287 287 287 294 303 307 308
255 205 137 117 109 105 100 97 96 76 79 81 96 107 76 30 350 336 339 335 339 328 319 308 300 297 298 297 298 297 299 284 273 276 285 283 278 282 279 288 294 300 301 308
83 130 127 119 110 109 107 109 113 104 103 99 75 63 57 32 9 8 4 355 341 325 315 313 316 317 309 311 305 305 292 287 290 298 297 295 292 288 290 286 296 294 305 306
126 117 118 122 121 111 110 107 102 95 77 54 42 25 10 360 348 338 351 345 337 328 320 315 316 316 320 319 307 295 291 286 290 298 298 294 302 289 293 293 307 317 300 297
122 123 123 119 114 110 102 85 71 66 55 19 9 357 349 340 332 325 321 316 316 323 323 323 324 319 320 318 314 311 309 307 306 302 306 313 309 295 298 310 289 320 304 282
129 126 120 122 128 125 113 84 115 78 44 5 358 351 337 328 323 325 322 327 327 328 330 336 340 335 327 323 321 316 311 305 304 307 297 317 306 312 311 298 306 313 312 297
125 125 126 126 112 105 112 140 36 357 347 341 329 321 316 314 317 320 331 337 339 330 325 321 315 317 325 332 341 336 332 316 310 309 315 309 312 310 315 316 313 309 300 300
146 140 131 144 148 142 167 2 22 355 326 325 318 320 324 333 336 344 341 334 332 333 334 339 344 344 345 345 347 342 334 330 330 318 315 308 307 301 308 302 316 321 311 293
148 128 139 131 127 166 302 347 338 330 339 340 329 331 335 353 344 324 316 315 317 316 313 311 312 313 311 310 316 318 321 325 326 334 321 322 319 314 321 313 314 302 303 306
Wind_Speed_850mb
5 16 12 11 7 15 12 10 12 9 15 20 24 38 57 27 31 44 40 32 24 20 13 14 14 14 19 27 23 20 17 21 25 29 33 34 34 36 36 34 38 39 43 40
10 16 12 11 11 12 13 18 15 17 10 28 49 49 35 27 55 43 37 29 22 16 7 9 11 9 17 24 16 20 15 16 17 21 24 29 34 33 30 32 33 36 39 36
7 20 23 15 6 14 14 13 14 10 10 25 16 38 35 37 48 40 29 22 17 10 5 9 8 8 15 16 9 21 10 16 18 15 22 25 30 27 28 27 28 33 39 32
7 6 5 12 14 16 17 15 17 17 13 20 16 25 30 51 45 41 34 26 20 15 8 3 4 7 14 9 16 16 14 14 19 16 19 25 31 29 29 27 26 29 32 32
6 5 7 8 10 11 14 12 16 16 19 22 34 46 40 40 39 36 26 22 16 9 1 2 6 5 12 9 18 12 13 12 19 26 11 20 31 26 28 25 28 26 25 29
3 2 5 8 12 24 28 6 23 31 20 13 14 9 8 33 30 29 20 13 12 6 2 5 8 3 11 9 18 17 11 11 16 23 21 19 27 21 24 26 24 28 30 24
5 6 4 4 17 5 2 13 28 22 11 16 12 29 41 33 27 21 19 16 11 5 9 9 9 8 10 16 16 17 13 9 14 14 21 22 22 22 24 28 29 29 27 30
9 4 3 7 3 5 19 34 32 19 26 38 41 35 30 30 26 18 14 10 13 14 12 6 4 5 8 20 15 14 15 14 8 13 17 15 18 21 26 23 26 24 29 32
10 7 24 12 20 36 42 44 33 28 31 26 32 31 35 29 23 16 13 13 13 16 11 10 9 13 16 18 18 18 15 18 18 13 15 18 21 19 24 27 27 30 27 29
12 9 20 31 27 39 37 40 33 28 26 28 31 30 38 32 30 23 22 17 16 14 11 10 10 12 17 20 23 24 14 15 12 22 20 18 20 21 20 22 27 30 29 29
5 26 20 17 39 34 33 38 36 31 25 22 21 32 37 33 28 18 20 13 18 15 13 12 14 18 20 21 27 29 24 16 18 19 24 20 27 33 24 26 26 31 27 31
5 16 20 21 23 11 16 18 33 36 31 26 22 22 34 34 28 24 21 18 23 22 22 21 18 20 21 24 29 31 27 18 14 14 17 15 20 29 28 31 30 31 29 30
16 15 10 8 12 13 13 24 34 35 36 33 25 23 24 34 29 23 25 25 27 25 18 15 15 23 27 29 33 35 31 26 18 18 21 27 27 27 22 30 24 36 32 30
20 14 12 4 9 18 10 5 7 33 36 37 37 27 23 28 28 27 30 30 29 29 27 26 27 27 23 26 34 38 35 30 23 19 23 26 29 22 32 35 34 37 35 37
7 5 5 13 19 16 14 14 15 14 35 37 35 33 37 39 34 35 33 29 31 34 34 34 36 35 29 35 42 42 41 38 32 27 33 34 28 30 29 28 34 30 36 39
3 9 18 19 25 14 6 3 9 15 29 36 31 39 40 24 25 36 38 30 32 39 39 37 38 39 37 41 44 47 48 45 38 32 41 38 31 32 30 30 32 36 43 45
4 8 11 17 25 17 10 5 2 11 8 8 17 15 13 34 41 38 29 32 32 34 39 43 44 41 42 46 50 51 51 49 43 43 44 43 39 33 35 33 38 37 40 42
15 17 18 15 11 22 25 25 21 20 32 24 27 25 18 25 6 5 12 23 28 34 40 44 45 48 51 52 52 54 53 52 50 44 47 50 49 41 44 42 43 43 45 37
13 15 11 14 20 29 30 28 25 22 23 22 24 23 15 8 10 12 16 19 21 28 33 38 42 47 52 54 53 53 54 54 50 51 55 54 45 40 50 48 45 49 45 44
6 6 26 34 35 35 33 22 10 5 12 10 9 7 6 8 10 15 20 22 24 28 33 37 42 46 49 49 55 53 45 46 56 60 61 55 47 51 54 49 50 59 43 44
11 51 43 45 42 35 30 24 22 21 15 7 7 10 11 10 11 14 22 24 26 28 30 33 32 32 40 41 45 49 48 49 50 54 65 58 56 56 57 59 51 42 52 47
35 43 43 38 34 33 26 23 22 20 17 13 15 17 20 22 23 21 20 27 34 38 39 38 38 42 45 43 49 45 44 49 57 66 66 58 60 58 53 41 52 50 37 47
42 39 36 34 34 32 26 20 13 13 13 15 19 25 29 32 33 34 37 41 45 46 47 47 45 39 43 46 52 57 57 56 56 58 65 66 63 58 70 56 43 62 46 44
42 39 38 34 28 25 24 25 18 12 15 15 22 19 21 27 31 39 46 42 35 43 44 39 41 35 34 42 47 51 54 54 51 56 56 75 58 63 53 42 54 43 48 44
35 34 27 24 26 20 10 8 1 11 12 16 18 23 27 34 42 45 39 37 37 40 46 48 51 56 53 46 46 51 53 56 59 61 60 56 47 43 44 46 54 66 56 36
32 32 27 21 17 12 3 6 14 12 19 23 28 33 40 37 34 30 34 37 39 37 38 37 35 38 41 42 45 38 41 41 44 45 54 47 63 60 70 49 49 50 46 40
22 17 18 20 12 4 5 14 17 19 26 23 28 30 36 28 32 25 29 32 35 40 45 50 54 55 59 58 59 59 58 53 50 43 36 40 45 49 51 42 41 46 36 43
Wind_Direction_850mb
287 244 250 321 320 105 90 56 87 132 109 150 163 167 192 143 139 120 117 112 111 111 91 41 41 14 360 0 28 26 18 5 7 10 8 10 4 9 7 16 20 23 21 26
288 345 318 229 292 130 124 115 76 96 80 116 148 153 147 168 128 121 118 115 118 120 99 62 15 22 355 4 27 6 30 4 358 15 7 9 3 3 10 14 19 23 26 30
293 47 359 329 2 106 109 93 115 95 139 99 140 154 163 150 131 124 122 125 136 134 82 78 35 17 355 15 13 355 35 2 356 6 350 354 356 2 13 15 17 17 23 25
239 66 225 241 81 81 96 130 113 102 97 105 84 117 131 133 130 132 127 129 137 141 129 96 11 37 5 9 347 0 10 1 347 353 10 6 360 10 10 8 15 10 16 22
138 209 264 66 106 121 118 47 85 92 70 88 109 108 86 123 130 129 134 141 149 174 263 67 35 33 32 1 341 354 356 360 344 352 355 351 8 1 8 9 16 6 7 21
134 335 265 183 106 101 99 56 87 84 56 95 135 79 158 119 122 120 127 152 174 177 100 13 32 62 355 336 335 356 360 3 336 355 3 336 356 356 359 4 5 6 4 6
210 223 74 318 98 108 202 215 116 113 83 128 95 138 140 136 132 139 155 154 151 183 203 333 25 37 318 325 347 347 3 349 336 354 340 339 337 352 343 342 329 350 348 349
356 342 60 300 75 166 157 126 129 126 126 123 130 137 145 141 142 154 169 167 176 192 234 304 356 285 306 322 348 329 344 335 332 329 9 9 3 349 351 339 343 336 336 338
155 232 250 136 132 146 157 153 152 141 153 148 153 164 173 160 160 153 186 158 176 214 235 289 302 303 325 329 331 332 321 340 344 347 337 356 348 3 351 340 345 343 326 322
153 230 194 156 157 164 168 166 167 160 155 165 167 174 179 172 175 174 184 189 206 212 258 262 273 283 302 308 317 321 315 320 319 320 324 327 330 338 330 335 348 339 334 338
76 9 62 141 168 170 182 174 169 171 172 178 189 194 194 185 187 186 197 202 206 219 224 230 271 271 294 290 300 313 319 314 319 311 313 306 314 317 320 329 328 328 331 337
171 80 87 37 51 169 165 176 186 179 178 184 192 206 201 195 193 194 204 220 226 230 232 248 232 265 280 286 292 303 309 315 316 313 329 325 328 325 319 328 327 337 328 328
129 100 78 33 13 326 305 230 204 198 193 188 187 201 210 197 200 213 225 234 234 246 259 255 245 237 258 272 283 292 303 307 307 320 321 332 321 323 313 324 326 330 329 324
68 52 16 338 301 354 10 295 328 218 207 201 196 194 197 206 209 231 242 241 242 245 248 245 251 254 257 268 277 286 293 301 308 309 302 299 320 304 303 301 314 329 333 331
92 72 10 331 303 279 301 285 275 303 212 199 205 200 205 216 228 244 244 245 246 255 253 248 254 262 266 266 274 283 290 294 300 291 284 297 312 313 315 311 319 314 331 340
340 302 317 281 320 241 214 317 290 328 230 215 207 204 199 202 241 243 235 243 243 254 263 259 263 269 273 273 275 278 285 291 295 295 296 290 305 310 303 307 319 316 319 325
288 312 300 336 349 280 191 141 182 22 28 23 159 193 197 222 243 232 240 261 259 264 273 275 280 278 274 275 277 279 281 284 286 279 284 289 294 280 290 284 309 314 309 306
266 268 272 281 335 107 102 94 88 70 61 69 59 52 55 45 27 349 293 279 267 282 273 282 287 288 288 282 275 273 276 281 284 283 282 288 292 283 281 291 299 303 306 304
307 279 253 271 137 112 96 86 79 72 69 69 76 72 61 25 353 327 305 300 303 303 303 304 299 295 297 298 299 290 279 273 274 277 279 282 290 287 287 287 294 303 307 308
255 205 137 117 109 105 100 97 96 76 79 81 96 107 76 30 350 336 339 335 339 328 319 308 300 297 298 297 298 297 299 284 273 276 285 283 278 282 279 288 294 300 301 308
83 130 127 119 110 109 107 109 113 104 103 99 75 63 57 32 9 8 4 355 341 325 315 313 316 317 309 311 305 305 292 287 290 298 297 295 292 288 290 286 296 294 305 306
126 117 118 122 121 111 110 107 102 95 77 54 42 25 10 360 348 338 351 345 337 328 320 315 316 316 320 319 307 295 291 286 290 298 298 294 302 289 293 293 307 317 300 297
122 123 123 119 114 110 102 85 71 66 55 19 9 357 349 340 332 325 321 316 316 323 323 323 324 319 320 318 314 311 309 307 306 302 306 313 309 295 298 310 289 320 304 282
129 126 120 122 128 125 113 84 115 78 44 5 358 351 337 328 323 325 322 327 327 328 330 336 340 335 327 323 321 316 311 305 304 307 297 317 306 312 311 298 306 313 312 297
125 125 126 126 112 105 112 140 36 357 347 341 329 321 316 314 317 320 331 337 339 330 325 321 315 317 325 332 341 336 332 316 310 309 315 309 312 310 315 316 313 309 300 300
146 140 131 144 148 142 167 2 22 355 326 325 318 320 324 333 336 344 341 334 332 333 334 339 344 344 345 345 347 342 334 330 330 318 315 308 307 301 308 302 316 321 311 293
148 128 139 131 127 166 302 347 338 330 339 340 329 331 335 353 344 324 316 315 317 316 313 311 312 313 311 310 316 318 321 325 326 334 321 322 319 314 321 313 314 302 303 306